| time (UTC) | temp F | wind direction | speed MPH | gust MPH | rain 1hr in | rain 24hr in | rain mn in | humidity % | barometer mb |
| 20260903182346 | 90 | 209 | 2.0 | 9.0 | 0.00 | 0.00 | 0.00 | 61 | 1010.4 |
| 20260903181405 | 90 | 155 | 3.0 | 9.0 | 0.00 | 0.00 | 0.00 | 61 | 1010.4 |
| 20260903180425 | 90 | 150 | 3.0 | 9.0 | 0.00 | 0.00 | 0.00 | 61 | 1010.6 |
| 20260903175406 | 90 | 94 | 3.0 | 9.0 | 0.00 | 0.00 | 0.00 | 61 | 1010.8 |
| 20260903174354 | 89 | 122 | 2.0 | 8.0 | 0.00 | 0.00 | 0.00 | 62 | 1010.9 |
| 20260903172238 | 89 | 110 | 2.0 | 7.0 | 0.00 | 0.00 | 0.00 | 63 | 1011.2 |
| 20260903171239 | 88 | 236 | 2.0 | 7.0 | 0.00 | 0.00 | 0.00 | 64 | 1011.3 |
| 20260903170204 | 88 | 140 | 2.0 | 8.0 | 0.00 | 0.00 | 0.00 | 65 | 1011.3 |
| 20260903165206 | 88 | 250 | 2.0 | 8.0 | 0.00 | 0.00 | 0.00 | 66 | 1011.3 |
| 20260903164225 | 87 | 142 | 2.0 | 6.0 | 0.00 | 0.00 | 0.00 | 67 | 1011.3 |
| 20260903163216 | 86 | 184 | 2.0 | 8.0 | 0.00 | 0.00 | 0.00 | 68 | 1011.4 |
| 20260903162143 | 85 | 153 | 2.0 | 8.0 | 0.00 | 0.00 | 0.00 | 69 | 1011.4 |
| 20260903161158 | 85 | 188 | 2.0 | 6.0 | 0.00 | 0.00 | 0.00 | 70 | 1011.4 |
| 20260903160202 | 85 | 127 | 2.0 | 6.0 | 0.00 | 0.00 | 0.00 | 70 | 1011.4 |
| 20260903153938 | 85 | 273 | 2.0 | 6.0 | 0.00 | 0.00 | 0.00 | 70 | 1011.3 |
| 20260903152928 | 83 | 167 | 1.0 | 8.0 | 0.00 | 0.00 | 0.00 | 73 | 1011.3 |
| 20260903151945 | 83 | 133 | 2.0 | 8.0 | 0.00 | 0.00 | 0.00 | 71 | 1011.3 |
| 20260903150933 | 83 | 133 | 1.0 | 6.0 | 0.00 | 0.00 | 0.00 | 72 | 1011.4 |
| 20260903145929 | 82 | 193 | 1.0 | 5.0 | 0.00 | 0.00 | 0.00 | 73 | 1011.3 |
| 20260903143750 | 83 | 127 | 1.0 | 8.0 | 0.00 | 0.00 | 0.00 | 73 | 1011.5 |
| 20260903142730 | 82 | 136 | 2.0 | 7.0 | 0.00 | 0.00 | 0.00 | 73 | 1011.5 |
| 20260903141714 | 82 | 122 | 2.0 | 7.0 | 0.00 | 0.00 | 0.00 | 73 | 1011.5 |
| 20260903140715 | 82 | 107 | 1.0 | 7.0 | 0.00 | 0.00 | 0.00 | 73 | 1011.5 |
| 20260903135658 | 81 | 147 | 1.0 | 6.0 | 0.00 | 0.00 | 0.00 | 73 | 1011.4 |
| 20260903134650 | 81 | 170 | 1.0 | 4.0 | 0.00 | 0.00 | 0.00 | 73 | 1011.4 |
| 20260903133708 | 81 | 130 | 0.0 | 2.0 | 0.00 | 0.00 | 0.00 | 73 | 1011.3 |
| 20260903132702 | 80 | 130 | 0.0 | 3.0 | 0.00 | 0.00 | 0.00 | 74 | 1011.3 |
| 20260903131638 | 80 | 119 | 0.0 | 0.0 | 0.00 | 0.00 | 0.00 | 76 | 1011.3 |
| 20260903130630 | 78 | 101 | 0.0 | 3.0 | 0.00 | 0.00 | 0.00 | 78 | 1011.4 |
| 20260903125644 | 77 | 140 | 0.0 | 2.0 | 0.00 | 0.00 | 0.00 | 81 | 1011.3 |
| 20260903124622 | 76 | 141 | 0.0 | 0.0 | 0.00 | 0.00 | 0.00 | 81 | 1011.2 |
| 20260903123621 | 76 | 141 | 0.0 | 0.0 | 0.00 | 0.00 | 0.00 | 80 | 1011.3 |
| 20260903122604 | 76 | 142 | 0.0 | 0.0 | 0.00 | 0.00 | 0.00 | 80 | 1011.0 |
| 20260903121534 | 76 | 142 | 0.0 | 0.0 | 0.00 | 0.00 | 0.00 | 80 | 1010.9 |
| 20260903120538 | 77 | 144 | 0.0 | 0.0 | 0.00 | 0.00 | 0.00 | 80 | 1010.7 |
| 20260903115532 | 77 | 146 | 0.0 | 0.0 | 0.00 | 0.00 | 0.00 | 79 | 1010.7 |
| 20260903114500 | 77 | 146 | 0.0 | 0.0 | 0.00 | 0.00 | 0.00 | 79 | 1010.7 |
| 20260903113502 | 77 | 146 | 0.0 | 0.0 | 0.00 | 0.00 | 0.00 | 78 | 1010.8 |
| 20260903112458 | 78 | 146 | 0.0 | 0.0 | 0.00 | 0.00 | 0.00 | 78 | 1010.8 |
| 20260903111505 | 78 | 146 | 0.0 | 0.0 | 0.00 | 0.00 | 0.00 | 77 | 1010.5 |
| 20260903110453 | 78 | 146 | 0.0 | 0.0 | 0.00 | 0.00 | 0.00 | 76 | 1010.4 |
| 20260903105437 | 79 | 146 | 0.0 | 1.0 | 0.00 | 0.00 | 0.00 | 76 | 1010.3 |
| 20260903104443 | 79 | 146 | 0.0 | 0.0 | 0.00 | 0.00 | 0.00 | 76 | 1010.5 |
| 20260903103444 | 79 | 146 | 0.0 | 0.0 | 0.00 | 0.00 | 0.00 | 77 | 1010.6 |
| 20260903095045 | 78 | 146 | 0.0 | 0.0 | 0.00 | 0.00 | 0.00 | 78 | 1010.5 |
| 20260903094019 | 78 | 146 | 0.0 | 0.0 | 0.00 | 0.00 | 0.00 | 78 | 1010.6 |
| 20260903093035 | 78 | 146 | 0.0 | 0.0 | 0.00 | 0.00 | 0.00 | 76 | 1010.5 |
| 20260903092010 | 78 | 146 | 0.0 | 0.0 | 0.00 | 0.00 | 0.00 | 75 | 1010.4 |
| 20260903084703 | 80 | 146 | 0.0 | 0.0 | 0.00 | 0.00 | 0.00 | 74 | 1010.5 |
| 20260903082503 | 80 | 148 | 0.0 | 3.0 | 0.00 | 0.00 | 0.00 | 74 | 1010.4 |
| 20260903081439 | 80 | 98 | 0.0 | 1.0 | 0.00 | 0.00 | 0.00 | 74 | 1010.5 |
| 20260903075302 | 80 | 121 | 0.0 | 2.0 | 0.00 | 0.00 | 0.00 | 74 | 1010.6 |
| 20260903074236 | 80 | 121 | 0.0 | 0.0 | 0.00 | 0.00 | 0.00 | 73 | 1010.6 |
| 20260903073245 | 80 | 123 | 0.0 | 2.0 | 0.00 | 0.00 | 0.00 | 72 | 1010.5 |
| 20260903072254 | 80 | 177 | 1.0 | 3.0 | 0.00 | 0.00 | 0.00 | 72 | 1010.5 |
| 20260903071246 | 81 | 141 | 0.0 | 2.0 | 0.00 | 0.00 | 0.00 | 71 | 1010.5 |
| 20260903070251 | 81 | 127 | 0.0 | 0.0 | 0.00 | 0.00 | 0.00 | 70 | 1010.6 |
| 20260903065310 | 81 | 125 | 0.0 | 2.0 | 0.00 | 0.00 | 0.00 | 70 | 1010.6 |
| 20260903064301 | 81 | 117 | 0.0 | 6.0 | 0.00 | 0.00 | 0.00 | 69 | 1010.7 |
| 20260903063252 | 81 | 126 | 0.0 | 6.0 | 0.00 | 0.00 | 0.00 | 69 | 1010.8 |
| 20260903062233 | 82 | 193 | 0.0 | 0.0 | 0.00 | 0.00 | 0.00 | 68 | 1010.9 |
| 20260903061223 | 82 | 188 | 0.0 | 6.0 | 0.00 | 0.00 | 0.00 | 67 | 1011.0 |
| 20260903060200 | 83 | 323 | 1.0 | 10.0 | 0.00 | 0.00 | 0.00 | 66 | 1011.1 |
| 20260903052901 | 84 | 74 | 1.0 | 12.0 | 0.00 | 0.00 | 0.00 | 62 | 1011.2 |
| 20260903050728 | 85 | 128 | 0.0 | 3.0 | 0.00 | 0.00 | 0.00 | 61 | 1011.0 |
| 20260903045707 | 85 | 136 | 0.0 | 0.0 | 0.00 | 0.00 | 0.00 | 60 | 1011.0 |
| 20260903044648 | 85 | 130 | 0.0 | 4.0 | 0.00 | 0.00 | 0.00 | 60 | 1010.9 |
| 20260903042600 | 86 | 172 | 0.0 | 4.0 | 0.00 | 0.00 | 0.00 | 59 | 1011.0 |
| 20260903040427 | 87 | 147 | 0.0 | 3.0 | 0.00 | 0.00 | 0.00 | 57 | 1011.1 |
| 20260903035432 | 87 | 148 | 1.0 | 8.0 | 0.00 | 0.00 | 0.00 | 56 | 1011.0 |
| 20260903034432 | 87 | 116 | 2.0 | 8.0 | 0.00 | 0.00 | 0.00 | 55 | 1011.0 |
| 20260903032235 | 89 | 103 | 1.0 | 10.0 | 0.00 | 0.00 | 0.00 | 53 | 1010.8 |
| 20260903031240 | 90 | 125 | 1.0 | 10.0 | 0.00 | 0.00 | 0.00 | 52 | 1010.7 |
| 20260903025035 | 91 | 123 | 2.0 | 10.0 | 0.00 | 0.00 | 0.00 | 48 | 1010.4 |
| 20260903024025 | 91 | 134 | 1.0 | 10.0 | 0.00 | 0.00 | 0.00 | 48 | 1010.2 |
| 20260903022959 | 91 | 97 | 2.0 | 7.0 | 0.00 | 0.00 | 0.00 | 48 | 1010.1 |
| 20260903022019 | 92 | 142 | 2.0 | 8.0 | 0.00 | 0.00 | 0.00 | 48 | 1010.0 |
| 20260903021032 | 92 | 159 | 2.0 | 8.0 | 0.00 | 0.00 | 0.00 | 48 | 1009.8 |
| 20260903020033 | 92 | 113 | 1.0 | 6.0 | 0.00 | 0.00 | 0.00 | 48 | 1009.8 |
| 20260903015037 | 92 | 159 | 2.0 | 7.0 | 0.00 | 0.00 | 0.00 | 48 | 1009.6 |
| 20260903014030 | 93 | 137 | 1.0 | 7.0 | 0.00 | 0.00 | 0.00 | 48 | 1009.6 |
| 20260903013037 | 93 | 163 | 1.0 | 5.0 | 0.00 | 0.00 | 0.00 | 48 | 1009.5 |
| 20260903012030 | 93 | 165 | 1.0 | 8.0 | 0.00 | 0.00 | 0.00 | 47 | 1009.3 |
| 20260903011029 | 93 | 108 | 1.0 | 8.0 | 0.00 | 0.00 | 0.00 | 46 | 1009.2 |
| 20260903010046 | 94 | 161 | 2.0 | 11.0 | 0.00 | 0.00 | 0.00 | 46 | 1009.2 |
| 20260903005101 | 94 | 221 | 2.0 | 15.0 | 0.00 | 0.00 | 0.00 | 45 | 1009.2 |
| 20260903004054 | 95 | 150 | 2.0 | 15.0 | 0.00 | 0.00 | 0.00 | 43 | 1009.2 |
| 20260903003113 | 96 | 115 | 2.0 | 10.0 | 0.00 | 0.00 | 0.00 | 41 | 1009.1 |
| 20260903002126 | 97 | 37 | 1.0 | 6.0 | 0.00 | 0.00 | 0.00 | 39 | 1009.0 |
| 20260903000038 | 98 | 115 | 1.0 | 7.0 | 0.00 | 0.00 | 0.00 | 37 | 1008.9 |
| 20260902235059 | 99 | 84 | 1.0 | 7.0 | 0.00 | 0.00 | 0.00 | 37 | 1008.9 |
| 20260902234110 | 99 | 128 | 2.0 | 6.0 | 0.00 | 0.00 | 0.00 | 35 | 1008.9 |
| 20260902233056 | 100 | 128 | 1.0 | 4.0 | 0.00 | 0.00 | 0.00 | 35 | 1008.9 |
| 20260902232040 | 100 | 57 | 1.0 | 6.0 | 0.00 | 0.00 | 0.00 | 35 | 1008.9 |
| 20260902225915 | 100 | 55 | 2.0 | 8.0 | 0.00 | 0.00 | 0.00 | 35 | 1008.8 |
| 20260902224847 | 100 | 57 | 2.0 | 7.0 | 0.00 | 0.00 | 0.00 | 35 | 1008.9 |
| 20260902223837 | 101 | 355 | 1.0 | 6.0 | 0.00 | 0.00 | 0.00 | 35 | 1009.0 |
| 20260902222847 | 100 | 207 | 1.0 | 5.0 | 0.00 | 0.00 | 0.00 | 36 | 1008.9 |
| 20260902221848 | 100 | 140 | 2.0 | 7.0 | 0.00 | 0.00 | 0.00 | 36 | 1009.1 |
| 20260902220855 | 99 | 154 | 2.0 | 10.0 | 0.00 | 0.00 | 0.00 | 36 | 1009.2 |
| 20260902215828 | 100 | 45 | 3.0 | 10.0 | 0.00 | 0.00 | 0.00 | 37 | 1009.2 |
| 20260902214819 | 101 | 343 | 2.0 | 7.0 | 0.00 | 0.00 | 0.00 | 36 | 1009.3 |
| 20260902213816 | 100 | 57 | 1.0 | 8.0 | 0.00 | 0.00 | 0.00 | 36 | 1009.5 |
| 20260902212837 | 100 | 295 | 2.0 | 8.0 | 0.00 | 0.00 | 0.00 | 36 | 1009.6 |
| 20260902211853 | 100 | 34 | 0.0 | 3.0 | 0.00 | 0.00 | 0.00 | 35 | 1009.6 |
| 20260902210914 | 100 | 148 | 2.0 | 7.0 | 0.00 | 0.00 | 0.00 | 37 | 1009.7 |
| 20260902204744 | 100 | 153 | 1.0 | 8.0 | 0.00 | 0.00 | 0.00 | 37 | 1010.0 |
| 20260902203708 | 99 | 350 | 2.0 | 8.0 | 0.00 | 0.00 | 0.00 | 38 | 1010.2 |
| 20260902201459 | 99 | 44 | 2.0 | 7.0 | 0.00 | 0.00 | 0.00 | 38 | 1010.5 |
| 20260902200440 | 98 | 38 | 2.0 | 8.0 | 0.00 | 0.00 | 0.00 | 38 | 1010.7 |
| 20260902195417 | 98 | 28 | 2.0 | 8.0 | 0.00 | 0.00 | 0.00 | 40 | 1010.8 |
| 20260902194421 | 98 | 355 | 2.0 | 7.0 | 0.00 | 0.00 | 0.00 | 40 | 1011.0 |
| 20260902192323 | 97 | 57 | 2.0 | 6.0 | 0.00 | 0.00 | 0.00 | 41 | 1011.4 |
| 20260902191308 | 98 | 32 | 1.0 | 8.0 | 0.00 | 0.00 | 0.00 | 41 | 1011.6 |
| 20260902190244 | 97 | 84 | 2.0 | 10.0 | 0.00 | 0.00 | 0.00 | 41 | 1011.7 |
| 20260902185227 | 97 | 22 | 1.0 | 6.0 | 0.00 | 0.00 | 0.00 | 42 | 1011.8 |
| 20260902183102 | 96 | 32 | 1.0 | 7.0 | 0.00 | 0.00 | 0.00 | 43 | 1012.1 |